Theta_e
275 276 276 275 275 276 275 277 274 282 285 289 293 295 297 298 299 299 299 299 300 299 300 301 301 304 306 315 320 320 319 318 318 317 316 316 315 314 315 315 313 312 311 309
271 275 274 273 275 275 276 276 277 278 280 292 295 297 297 296 297 296 298 299 299 298 298 298 299 300 304 310 318 318 318 318 318 318 316 317 317 316 314 313 312 312 309 309
268 273 273 269 273 275 276 278 278 275 281 287 293 294 296 297 297 297 298 299 297 296 297 298 299 300 300 303 307 315 316 317 318 318 316 316 316 315 311 310 310 309 309 308
269 271 263 274 279 279 277 279 281 282 284 287 290 295 297 299 297 297 298 298 296 296 297 299 301 302 303 304 307 309 312 313 316 314 314 314 313 312 311 310 309 309 309 308
268 268 272 274 277 277 275 276 281 282 285 289 292 294 294 297 298 299 298 296 297 298 299 301 302 303 305 305 306 307 308 308 311 311 310 311 310 310 310 308 307 307 306 306
271 266 265 274 278 281 282 273 282 284 285 287 290 286 290 297 296 295 296 296 297 299 300 301 301 304 303 301 301 300 302 303 304 306 306 305 305 304 303 305 304 304 303 304
270 268 272 276 276 280 271 274 280 284 287 288 288 292 294 294 294 295 295 295 297 296 295 296 299 300 298 296 295 297 298 298 299 300 301 301 300 300 301 301 300 300 299 300
268 266 265 276 274 270 277 278 280 282 285 288 292 293 292 292 292 292 292 293 294 293 292 295 297 297 296 295 296 297 296 296 296 298 299 300 300 299 299 298 296 296 295 295
267 268 274 275 274 277 278 277 279 282 286 291 291 291 291 290 290 290 290 291 292 292 291 292 294 295 294 295 297 297 296 295 296 296 297 299 299 299 299 300 298 296 295 293
267 272 272 273 276 278 285 280 282 289 292 291 289 289 288 288 288 289 290 290 291 291 290 290 291 291 293 295 296 295 293 293 294 294 294 296 296 297 297 296 294 294 295 295
268 271 272 274 275 279 287 287 287 289 289 288 287 287 287 286 286 287 287 288 289 288 288 288 289 289 290 292 293 292 292 292 292 292 293 292 292 292 293 292 293 294 293 293
265 271 271 271 275 278 281 283 284 284 284 285 284 283 284 283 284 284 284 285 285 285 286 286 287 288 289 291 291 290 289 289 290 290 291 292 292 291 294 293 293 293 294 293
270 274 274 274 275 277 277 279 280 280 281 280 281 282 281 281 281 284 283 283 283 283 284 285 286 286 288 289 289 288 288 288 289 290 289 289 289 289 289 291 292 292 293 293
274 274 272 273 272 275 276 277 280 280 280 280 280 280 280 279 280 280 280 281 283 283 283 283 284 284 287 288 288 288 288 288 287 287 288 288 288 288 288 288 288 287 290 291
274 274 274 275 275 274 275 276 275 275 277 278 279 279 279 278 278 279 280 281 281 281 281 282 282 282 284 286 285 285 286 286 286 286 287 287 287 287 287 287 287 286 286 288
274 274 274 273 273 274 274 274 274 274 275 276 277 278 278 278 278 279 279 280 278 277 279 280 281 282 283 283 283 283 284 285 286 285 285 285 285 285 285 285 285 285 285 286
272 271 272 272 273 273 274 274 275 275 275 275 276 277 277 277 277 277 278 279 279 279 279 279 279 282 282 282 281 282 282 282 283 283 282 283 283 283 283 284 284 284 284 286
274 274 275 274 273 273 273 274 275 275 275 275 276 276 275 275 275 275 276 278 278 278 278 278 280 280 282 281 280 280 280 280 280 280 281 281 281 282 281 282 282 282 282 283
273 273 274 274 274 274 274 274 275 275 275 276 275 275 275 275 275 275 276 276 275 275 277 278 279 280 280 281 280 279 278 278 278 278 278 280 279 280 279 279 279 280 280 281
272 273 273 273 274 273 273 274 275 275 275 275 275 274 274 274 275 275 276 275 275 276 278 278 277 278 279 280 280 278 277 276 276 276 276 277 277 277 277 278 278 278 279 279
271 271 272 272 272 273 273 274 274 273 275 275 273 273 273 274 275 275 274 274 276 278 278 278 277 278 279 280 279 277 276 275 275 275 275 275 276 276 276 277 277 277 277 278
271 270 271 272 271 271 272 273 273 273 273 274 274 274 273 273 274 274 275 274 276 278 278 277 277 278 279 280 277 276 275 275 275 275 275 275 275 275 276 276 276 277 277 277
271 271 271 271 271 271 272 272 272 273 272 273 273 273 273 273 274 272 272 275 276 277 277 276 277 278 279 277 276 275 275 274 274 274 275 275 275 275 275 275 276 276 276 276
270 270 270 271 272 271 270 271 272 273 272 273 273 274 273 272 273 275 275 276 277 277 276 276 277 277 277 275 274 274 274 274 274 274 274 276 275 275 275 275 275 275 275 275
270 270 270 270 270 270 270 271 271 272 272 272 273 273 274 275 273 274 275 274 276 275 274 275 276 276 274 273 273 273 273 274 274 274 274 273 273 273 274 275 274 274 274 274
269 269 270 270 270 270 270 270 270 271 271 270 271 272 274 274 274 274 274 274 273 274 273 273 273 273 272 272 272 272 272 272 272 272 273 272 272 272 273 273 272 272 272 272
269 271 270 269 270 270 270 271 269 268 270 269 270 272 272 272 272 272 272 271 271 271 272 272 272 271 271 271 271 271 271 271 272 272 272 271 270 270 270 270 270 271 271 271
Wind_Speed
20 21 26 28 27 28 21 18 10 19 24 23 21 13 10 3 5 8 9 5 4 5 5 5 5 5 6 7 8 8 9 11 11 12 12 13 12 13 12 12 15 13 14 12
24 25 26 30 28 29 29 27 26 29 27 27 20 20 19 3 9 8 7 7 2 4 6 5 5 5 3 5 6 5 10 11 11 12 13 14 13 12 12 10 11 10 11 12
23 28 25 26 25 30 29 25 25 26 26 26 23 15 17 11 13 10 9 6 4 4 5 5 5 5 4 3 4 3 2 5 8 9 9 11 11 9 11 12 11 12 11 8
20 22 23 23 25 28 30 29 24 24 27 25 23 22 15 14 14 12 12 6 2 3 3 4 4 3 3 2 2 1 2 3 3 4 6 7 9 11 10 9 11 10 12 13
6 14 20 26 22 23 24 28 28 26 23 22 23 20 24 21 20 17 5 4 4 4 3 3 5 4 4 5 4 3 3 5 4 1 2 4 6 7 7 7 7 8 6 7
13 18 23 22 20 30 25 24 26 24 26 27 17 15 11 15 4 7 6 5 7 7 6 6 6 5 7 7 7 8 7 5 5 4 3 3 3 3 2 3 4 4 4 6
13 16 15 14 28 23 12 8 26 21 19 17 19 15 1 12 11 10 8 9 11 11 10 8 7 8 10 9 9 7 7 6 7 7 6 5 4 3 3 4 5 4 4 3
9 14 11 32 30 11 21 34 26 24 22 23 18 11 15 15 14 12 11 12 13 12 11 9 9 10 11 11 5 5 6 7 7 5 3 4 6 5 5 5 5 4 4 3
8 11 29 26 28 33 32 33 29 22 25 18 16 18 18 16 14 13 12 13 13 12 13 13 13 12 13 10 8 9 9 9 8 8 8 7 7 5 5 4 3 3 3 2
16 6 22 32 27 34 7 20 21 20 6 16 19 19 18 15 14 13 14 14 13 14 14 15 14 14 13 10 10 10 11 10 8 8 7 7 5 5 5 5 5 4 4 3
14 12 28 20 33 29 14 11 11 15 18 18 20 20 19 16 15 14 14 14 14 14 15 16 15 15 14 13 11 11 11 9 8 7 7 8 9 8 6 8 7 5 4 4
7 19 14 20 27 31 25 19 15 20 22 22 21 22 19 16 15 14 14 13 14 15 15 15 15 14 13 14 13 12 11 9 8 7 6 6 5 8 17 16 18 18 19 13
10 18 14 18 25 29 25 25 24 23 20 25 22 20 21 18 17 20 16 16 15 15 13 12 14 14 14 12 12 13 10 9 8 9 7 7 6 5 6 9 19 22 19 20
19 17 20 26 19 24 24 24 26 25 25 23 22 21 19 18 17 17 17 15 14 15 16 15 14 16 14 14 14 13 12 18 8 8 7 7 7 6 6 6 6 7 13 15
21 20 16 17 24 27 26 24 28 25 23 22 20 19 18 18 18 17 15 13 14 15 15 14 15 15 14 13 13 13 10 8 8 7 7 9 7 7 7 7 6 6 6 9
18 19 20 23 21 22 23 23 22 21 20 18 17 17 16 15 15 14 14 14 14 14 14 13 14 13 13 12 11 9 9 17 12 7 7 7 7 7 7 6 6 6 6 6
14 20 21 20 18 18 19 16 16 16 16 16 17 16 16 15 15 15 13 13 13 12 12 13 12 11 12 12 11 8 7 7 13 7 6 6 6 6 6 5 5 5 5 7
14 15 15 15 16 16 16 17 15 16 15 15 13 14 14 14 13 13 12 11 9 10 12 12 11 10 10 12 10 8 7 6 6 6 6 6 5 5 5 4 4 4 4 5
17 17 17 17 16 14 14 14 14 13 14 14 13 13 13 12 12 11 9 9 10 11 11 11 14 11 9 12 10 6 6 7 7 6 6 7 5 5 5 5 5 5 5 4
16 15 15 16 15 15 14 13 14 13 13 13 12 12 12 12 11 10 9 8 9 8 9 11 10 9 9 9 13 6 7 7 6 5 5 5 4 5 4 5 5 4 4 4
15 15 15 15 14 13 13 12 12 12 12 11 11 11 11 10 10 9 8 6 9 10 10 11 8 7 7 9 7 6 6 6 6 5 5 5 5 5 4 4 4 5 4 4
12 13 14 13 13 12 12 11 11 11 11 10 10 10 10 10 10 9 8 5 7 14 9 5 6 13 10 14 6 6 6 6 6 5 5 5 5 5 5 5 5 4 4 4
10 11 12 11 11 12 11 10 10 10 10 10 9 9 9 8 7 7 7 9 7 11 8 6 12 17 18 7 6 6 7 6 6 5 5 5 5 5 5 5 5 5 5 5
11 11 11 10 10 9 10 11 10 9 10 9 9 8 7 6 7 5 7 10 14 12 9 8 12 17 16 6 5 5 6 6 6 6 6 10 6 5 5 5 5 5 5 6
10 10 9 9 9 8 10 10 10 8 8 8 8 8 8 5 6 7 6 6 12 11 8 12 15 15 7 6 6 6 6 6 6 6 6 6 6 6 6 5 5 5 5 5
11 8 8 9 7 7 7 8 8 8 8 8 8 8 6 6 6 7 7 10 8 10 6 6 6 7 6 7 7 7 7 7 7 7 8 7 7 7 6 6 6 6 6 6
8 11 8 8 6 7 7 8 8 9 9 9 9 9 7 7 8 9 11 8 7 7 6 6 6 8 7 7 7 7 6 7 9 8 7 7 7 6 7 7 6 6 5 5
Wind_Direction
271 277 283 286 283 284 275 277 281 288 272 244 250 232 200 118 212 244 284 303 328 322 328 330 309 274 267 263 220 193 192 205 210 193 192 206 210 199 201 196 202 197 200 200
275 275 277 279 277 276 273 266 267 273 278 279 268 240 256 272 279 281 289 304 309 317 317 331 330 304 279 277 249 182 203 205 209 196 195 202 202 194 197 198 199 198 190 196
269 267 271 268 269 270 265 263 261 265 269 287 279 246 271 258 269 283 284 308 328 309 321 331 351 343 314 322 286 251 283 212 212 209 189 192 205 197 192 192 194 196 202 178
261 274 266 259 256 260 268 269 254 244 250 258 267 284 253 261 269 283 287 307 37 5 321 337 346 3 351 351 61 171 340 355 190 205 194 182 193 193 192 188 192 191 205 193
261 255 277 268 267 268 267 253 250 249 244 258 256 259 264 265 268 269 295 75 86 79 47 18 14 15 48 65 63 76 62 44 354 351 204 192 190 188 192 187 185 197 187 183
277 279 278 287 350 341 294 250 264 235 235 240 261 247 254 268 114 105 102 101 103 94 79 58 39 51 69 60 56 47 31 48 29 25 56 67 99 110 96 127 159 147 151 187
295 290 282 36 352 315 263 288 325 284 256 237 232 241 210 98 96 95 98 104 93 81 71 54 55 72 74 61 48 37 51 47 54 45 55 64 59 31 67 86 94 98 126 138
317 296 274 349 336 340 321 307 301 296 300 290 260 139 130 120 113 109 102 92 83 82 74 60 64 73 72 65 62 54 52 48 40 54 73 108 101 85 72 76 78 84 91 83
298 304 309 302 291 288 274 262 276 280 281 268 126 129 122 116 111 98 95 87 85 82 74 60 51 55 64 58 64 74 72 61 50 52 39 32 68 75 85 91 110 110 92 93
310 323 307 310 310 304 262 226 249 255 114 115 117 114 104 100 93 89 79 76 77 74 68 61 51 48 38 50 59 69 68 60 57 48 48 53 41 38 63 61 63 51 39 60
300 296 318 330 342 344 31 68 86 90 92 99 99 92 86 78 75 71 65 65 65 65 61 56 50 47 37 37 52 61 61 56 54 47 53 67 57 27 60 47 37 51 49 49
324 327 332 328 344 3 24 33 56 77 80 76 75 79 79 74 67 66 65 64 65 63 55 51 44 42 42 36 42 51 53 45 38 45 40 42 71 64 52 63 59 56 48 40
341 332 351 357 10 13 26 37 45 55 60 69 64 70 69 70 63 61 57 55 53 53 54 51 49 45 30 46 56 53 46 36 34 35 35 44 39 43 84 69 68 48 46 43
359 350 3 14 12 17 24 30 42 49 53 56 59 59 61 61 57 55 51 50 52 55 55 50 45 44 39 37 41 46 47 45 41 36 32 33 33 38 37 41 49 38 38 38
2 7 13 9 18 18 20 21 33 33 36 43 44 50 50 54 53 51 48 53 51 49 48 44 42 37 29 35 42 43 35 38 35 35 37 37 33 35 39 42 44 47 31 34
350 3 10 19 17 18 21 22 30 30 33 36 41 47 55 59 56 53 50 47 48 45 38 37 35 30 28 28 34 34 35 35 39 32 33 31 30 34 31 30 33 35 33 17
355 6 7 12 12 15 23 23 29 29 31 35 36 39 43 46 49 44 40 45 47 42 36 31 29 23 34 26 28 27 25 23 25 30 29 25 25 28 22 25 24 24 25 14
5 6 9 12 8 10 12 16 20 24 27 28 34 35 36 36 38 35 33 33 42 47 33 26 19 23 26 28 22 22 19 15 16 18 12 16 17 18 17 16 17 12 9 1
6 5 6 7 6 5 8 9 12 17 18 21 25 30 33 32 28 27 27 31 28 27 21 13 11 20 17 26 18 16 14 11 9 11 4 1 2 7 7 5 1 358 359 354
3 4 3 3 4 5 1 4 0 8 11 12 15 20 21 20 15 12 14 44 32 6 6 6 6 4 1 14 6 5 1 2 359 357 354 350 353 347 347 349 346 343 343 344
354 355 355 359 357 0 3 359 358 359 359 5 8 9 3 2 5 360 4 6 14 3 355 6 1 357 348 359 357 351 349 347 345 345 342 339 338 340 336 337 334 332 331 333
342 344 343 350 353 351 354 355 359 355 356 353 356 357 352 352 353 351 356 3 347 350 342 359 347 344 337 348 348 339 338 339 335 336 333 334 332 327 324 326 324 325 322 321
333 336 337 343 344 336 341 353 351 346 349 350 345 343 341 335 339 339 339 346 342 328 336 342 333 338 338 346 341 333 333 331 329 328 324 320 313 315 312 314 309 317 315 315
329 331 328 327 330 333 343 345 337 339 345 332 344 337 334 331 337 345 333 330 330 331 332 324 332 334 336 336 331 327 320 319 317 319 315 314 312 306 303 303 301 302 305 308
319 316 313 324 324 332 331 335 320 330 333 330 335 324 330 336 329 325 327 322 325 333 321 328 329 331 336 328 322 314 310 311 310 301 309 312 305 296 291 291 290 285 283 286
321 319 321 319 327 322 331 321 324 335 324 330 327 331 329 335 326 326 324 324 328 324 329 325 321 326 323 312 314 315 314 313 313 308 306 306 300 295 293 290 289 284 278 277
314 320 316 327 329 333 322 322 332 324 326 329 314 307 332 332 325 326 325 326 323 325 324 324 324 321 316 315 316 315 307 304 304 301 300 302 301 297 289 286 283 281 282 279